When you browse on this site, cookies collect data to enhance your experience and personalize the content and advertising you see.
Visit our Privacy Policy to learn more. By continuing to use the site, you agree to this use of cookies and data.
  • In Germany
  • List of Countries
  • For 7 days
  • Water Temperature
  • Satellite Maps
  • Weather Map
  • Weather Widgets
  • user-avatar
    Login

    Hourly Weather Porto Velho

    Today, 16 December, Sunday

    Time Temperature Precipitation Wind Pressure Humidity
    00:00 +23°C° 0.3 mm 0 mps 753 mmHg 97%
    01:00 +23°C° 0.3 mm 0 mps 753 mmHg 98%
    02:00 +23°C° 0.3 mm 0 mps 753 mmHg 98%
    03:00 +23°C° 1 mm 0 mps 753 mmHg 99%
    04:00 +22°C° 1 mm 0 mps 753 mmHg 99%
    05:00 +22°C° 1 mm 0 mps 753 mmHg 99%
    06:00 +25°C° 0.1 mm 1 mps 754 mmHg 96%
    07:00 +26°C° 0.1 mm 1 mps 754 mmHg 93%
    08:00 +27°C° 0.1 mm 1 mps 755 mmHg 91%
    09:00 +28°C° 1.2 mm 1 mps 754 mmHg 86%
    10:00 +30°C° 1.2 mm 1 mps 754 mmHg 82%
    11:00 +31°C° 1.2 mm 1 mps 754 mmHg 78%
    12:00 +32°C° 0.9 mm 1 mps 753 mmHg 72%
    13:00 +33°C° 0.9 mm 1 mps 752 mmHg 66%
    14:00 +34°C° 0.9 mm 1 mps 751 mmHg 60%
    15:00 +33°C° 0.7 mm 1 mps 751 mmHg 65%
    16:00 +32°C° 0.7 mm 1 mps 750 mmHg 70%
    17:00 +31°C° 0.7 mm 1 mps 750 mmHg 75%
    18:00 +29°C° 0.6 mm 1 mps 750 mmHg 82%
    19:00 +28°C° 0.6 mm 1 mps 751 mmHg 89%
    20:00 +26°C° 0.6 mm 1 mps 751 mmHg 96%
    21:00 +24°C° 0.5 mm 0 mps 751 mmHg 96%
    22:00 +24°C° 0.5 mm 0 mps 752 mmHg 96%
    23:00 +23°C° 0.5 mm 0 mps 752 mmHg 96%

    Tomorrow, 17 December, Monday

    Time Temperature Precipitation Wind Pressure Humidity
    00:00 +23°C° 0.1 mm 0 mps 752 mmHg 96%
    01:00 +23°C° 0.1 mm 0 mps 751 mmHg 96%
    02:00 +22°C° 0.1 mm 0 mps 751 mmHg 97%
    03:00 +22°C° 0.1 mm 0 mps 751 mmHg 97%
    04:00 +22°C° 0.1 mm 0 mps 751 mmHg 97%
    05:00 +22°C° 0.1 mm 0 mps 751 mmHg 97%
    06:00 +23°C° 0 mm 0 mps 752 mmHg 94%
    07:00 +24°C° 0 mm 0 mps 752 mmHg 90%
    08:00 +25°C° 0 mm 0 mps 753 mmHg 87%
    09:00 +27°C° 0.8 mm 0 mps 753 mmHg 81%
    10:00 +31°C° 0.8 mm 1 mps 753 mmHg 75%
    11:00 +32°C° 0.8 mm 1 mps 753 mmHg 68%
    12:00 +33°C° 0.9 mm 1 mps 752 mmHg 68%
    13:00 +33°C° 0.9 mm 1 mps 751 mmHg 68%
    14:00 +33°C° 0.9 mm 1 mps 750 mmHg 67%
    15:00 +32°C° 1.2 mm 1 mps 750 mmHg 72%
    16:00 +31°C° 1.2 mm 1 mps 749 mmHg 77%
    17:00 +30°C° 1.2 mm 1 mps 749 mmHg 82%
    18:00 +29°C° 0.2 mm 1 mps 749 mmHg 86%
    19:00 +27°C° 0.2 mm 1 mps 750 mmHg 90%
    20:00 +24°C° 0.2 mm 0 mps 750 mmHg 93%
    21:00 +24°C° 0.1 mm 0 mps 751 mmHg 93%
    22:00 +23°C° 0.1 mm 0 mps 752 mmHg 93%
    23:00 +23°C° 0.1 mm 0 mps 752 mmHg 93%

    Day after tomorrow, 18 December, Tuesday

    Time Temperature Precipitation Wind Pressure Humidity
    00:00 +23°C° 0 mm 0 mps 752 mmHg 93%
    01:00 +23°C° 0 mm 0 mps 751 mmHg 94%
    02:00 +23°C° 0 mm 0 mps 751 mmHg 94%
    03:00 +22°C° 0.2 mm 0 mps 751 mmHg 95%
    04:00 +22°C° 0.2 mm 0 mps 751 mmHg 96%
    05:00 +22°C° 0.2 mm 0 mps 751 mmHg 97%
    06:00 +23°C° 0.2 mm 0 mps 751 mmHg 95%
    07:00 +24°C° 0.2 mm 0 mps 752 mmHg 93%
    08:00 +25°C° 0.2 mm 0 mps 753 mmHg 92%
    09:00 +26°C° 0.9 mm 0 mps 753 mmHg 86%
    10:00 +28°C° 0.9 mm 0 mps 752 mmHg 81%
    11:00 +31°C° 0.9 mm 1 mps 752 mmHg 76%
    12:00 +31°C° 0 mm 0 mps 752 mmHg 67%
    13:00 +32°C° 0 mm 0 mps 751 mmHg 57%
    14:00 +34°C° 0 mm 0 mps 750 mmHg 48%
    15:00 +33°C° 0 mm 0 mps 750 mmHg 53%
    16:00 +32°C° 0 mm 0 mps 749 mmHg 58%
    17:00 +31°C° 0 mm 0 mps 749 mmHg 63%
    18:00 +29°C° 1.6 mm 0 mps 750 mmHg 73%
    19:00 +28°C° 1.6 mm 1 mps 750 mmHg 82%
    20:00 +26°C° 1.6 mm 1 mps 751 mmHg 92%
    21:00 +26°C° 0.6 mm 1 mps 752 mmHg 94%
    22:00 +24°C° 0.6 mm 0 mps 752 mmHg 95%
    23:00 +23°C° 0.6 mm 0 mps 753 mmHg 97%

    19 December, Wednesday

    Time Temperature Precipitation Wind Pressure Humidity
    00:00 +23°C° 0 mm 0 mps 752 mmHg 97%
    01:00 +23°C° 0 mm 0 mps 751 mmHg 97%
    02:00 +23°C° 0 mm 0 mps 751 mmHg 97%
    03:00 +23°C° 0.2 mm 0 mps 751 mmHg 97%
    04:00 +23°C° 0.2 mm 0 mps 751 mmHg 97%
    05:00 +23°C° 0.2 mm 0 mps 751 mmHg 98%
    06:00 +23°C° 0.8 mm 0 mps 752 mmHg 96%
    07:00 +24°C° 0.8 mm 0 mps 752 mmHg 95%
    08:00 +25°C° 0.8 mm 0 mps 753 mmHg 94%
    09:00 +26°C° 2.2 mm 0 mps 753 mmHg 91%
    10:00 +27°C° 2.2 mm 0 mps 753 mmHg 89%
    11:00 +28°C° 2.2 mm 0 mps 752 mmHg 86%
    12:00 +28°C° 1.6 mm 0 mps 752 mmHg 84%
    13:00 +29°C° 1.6 mm 0 mps 751 mmHg 82%
    14:00 +29°C° 1.6 mm 0 mps 750 mmHg 81%
    15:00 +29°C° 0.8 mm 0 mps 750 mmHg 81%
    16:00 +29°C° 0.8 mm 0 mps 749 mmHg 82%
    17:00 +28°C° 0.8 mm 0 mps 749 mmHg 82%
    18:00 +27°C° 2.8 mm 0 mps 749 mmHg 87%
    19:00 +25°C° 2.8 mm 0 mps 750 mmHg 91%
    20:00 +26°C° 2.8 mm 1 mps 751 mmHg 96%
    21:00 +24°C° 1.4 mm 0 mps 751 mmHg 97%
    22:00 +24°C° 1.4 mm 0 mps 752 mmHg 97%
    23:00 +23°C° 1.4 mm 0 mps 752 mmHg 98%

    20 December, Thursday

    Time Temperature Precipitation Wind Pressure Humidity
    00:00 +23°C° 0 mm 0 mps 751 mmHg 98%
    01:00 +23°C° 0 mm 0 mps 751 mmHg 98%
    02:00 +23°C° 0 mm 0 mps 750 mmHg 98%
    03:00 +23°C° 0.1 mm 0 mps 750 mmHg 98%
    04:00 +23°C° 0.1 mm 0 mps 750 mmHg 98%
    05:00 +23°C° 0.1 mm 0 mps 751 mmHg 98%
    06:00 +23°C° 0.2 mm 0 mps 751 mmHg 98%
    07:00 +24°C° 0.2 mm 0 mps 752 mmHg 97%
    08:00 +24°C° 0.2 mm 0 mps 753 mmHg 96%
    09:00 +25°C° 0.9 mm 0 mps 753 mmHg 94%
    10:00 +26°C° 0.9 mm 0 mps 752 mmHg 92%
    11:00 +27°C° 0.9 mm 0 mps 752 mmHg 90%
    12:00 +30°C° 1.1 mm 1 mps 751 mmHg 83%
    13:00 +31°C° 1.1 mm 1 mps 751 mmHg 77%
    14:00 +32°C° 1.1 mm 1 mps 750 mmHg 70%
    15:00 +32°C° 1.1 mm 1 mps 749 mmHg 75%
    16:00 +31°C° 1.1 mm 1 mps 749 mmHg 79%
    17:00 +30°C° 1.1 mm 1 mps 748 mmHg 84%
    18:00 +27°C° 0.4 mm 0 mps 749 mmHg 87%
    19:00 +26°C° 0.4 mm 0 mps 749 mmHg 90%
    20:00 +25°C° 0.4 mm 0 mps 750 mmHg 94%
    21:00 +24°C° 0 mm 0 mps 750 mmHg 94%
    22:00 +24°C° 0 mm 0 mps 751 mmHg 94%
    23:00 +24°C° 0 mm 0 mps 751 mmHg 94%

    21 December, Friday

    Time Temperature Precipitation Wind Pressure Humidity
    00:00 +23°C° 0 mm 0 mps 750 mmHg 95%
    01:00 +23°C° 0 mm 0 mps 750 mmHg 96%
    02:00 +23°C° 0 mm 0 mps 750 mmHg 97%
    03:00 +23°C° 0 mm 0 mps 750 mmHg 97%
    04:00 +22°C° 0 mm 0 mps 750 mmHg 97%
    05:00 +22°C° 0 mm 0 mps 750 mmHg 98%
    06:00 +23°C° 0.2 mm 0 mps 751 mmHg 97%
    07:00 +23°C° 0.2 mm 0 mps 751 mmHg 95%
    08:00 +24°C° 0.2 mm 0 mps 752 mmHg 94%
    09:00 +25°C° 1.6 mm 0 mps 752 mmHg 94%
    10:00 +25°C° 1.6 mm 0 mps 752 mmHg 93%
    11:00 +26°C° 1.6 mm 0 mps 751 mmHg 92%
    12:00 +27°C° 0.8 mm 0 mps 751 mmHg 84%
    13:00 +29°C° 0.8 mm 0 mps 750 mmHg 76%
    14:00 +30°C° 0.8 mm 0 mps 750 mmHg 68%
    15:00 +29°C° 1.5 mm 0 mps 749 mmHg 74%
    16:00 +28°C° 1.5 mm 0 mps 749 mmHg 80%
    17:00 +28°C° 1.5 mm 0 mps 749 mmHg 86%
    18:00 +26°C° 2.4 mm 0 mps 749 mmHg 90%
    19:00 +25°C° 2.4 mm 0 mps 750 mmHg 93%
    20:00 +24°C° 2.4 mm 0 mps 751 mmHg 96%
    21:00 +24°C° 1.4 mm 0 mps 751 mmHg 97%
    22:00 +24°C° 1.4 mm 0 mps 751 mmHg 97%
    23:00 +23°C° 1.4 mm 0 mps 752 mmHg 97%
    Show more